QPF
0.01 0.01 0.01 0.02 0.02 0.03 0.03 0.02 0.02 0.02 0.03 0.03 0.03 0.04 0.04 0.03 0.04 0.03 0.03 0.02 0.02 0.02 0.04 0.08 0.10 0.10 0.09 0.08 0.06 0.05 0.05 0.05 0.03 0.03 0.02 0.01 0.02 0.03 0.03 0.02 0.01 0.01 0.01 0.02 0.02 0.03 0.03 0.04 0.04
0.01 0.00 0.01 0.02 0.03 0.03 0.02 0.03 0.02 0.02 0.02 0.03 0.03 0.02 0.01 0.01 0.01 0.02 0.03 0.02 0.02 0.02 0.04 0.07 0.08 0.08 0.07 0.09 0.07 0.06 0.05 0.04 0.03 0.02 0.02 0.02 0.02 0.03 0.03 0.03 0.01 0.01 0.01 0.02 0.03 0.03 0.03 0.04 0.05
0.00 0.01 0.01 0.02 0.03 0.04 0.03 0.02 0.02 0.02 0.02 0.04 0.04 0.02 0.01 0.03 0.03 0.04 0.02 0.01 0.02 0.03 0.04 0.07 0.07 0.08 0.09 0.08 0.07 0.06 0.04 0.04 0.03 0.02 0.02 0.02 0.02 0.02 0.02 0.03 0.02 0.02 0.02 0.02 0.02 0.02 0.03 0.03 0.03
0.00 0.01 0.01 0.01 0.02 0.03 0.03 0.02 0.02 0.02 0.02 0.04 0.03 0.03 0.03 0.03 0.03 0.02 0.01 0.01 0.02 0.02 0.03 0.05 0.07 0.08 0.08 0.07 0.07 0.06 0.03 0.04 0.03 0.02 0.02 0.02 0.02 0.02 0.03 0.02 0.01 0.01 0.00 0.01 0.01 0.02 0.03 0.02 0.02
0.00 0.01 0.01 0.02 0.02 0.03 0.03 0.02 0.02 0.03 0.03 0.04 0.03 0.03 0.03 0.05 0.03 0.01 0.01 0.01 0.02 0.02 0.03 0.05 0.08 0.10 0.11 0.09 0.06 0.05 0.02 0.02 0.02 0.01 0.01 0.01 0.01 0.01 0.03 0.01 0.00 0.00 0.00 0.01 0.01 0.01 0.02 0.02 0.03
0.01 0.01 0.01 0.01 0.02 0.03 0.04 0.03 0.04 0.03 0.03 0.03 0.03 0.05 0.05 0.06 0.04 0.02 0.01 0.02 0.02 0.03 0.02 0.05 0.09 0.11 0.09 0.06 0.05 0.04 0.02 0.01 0.01 0.01 0.01 0.01 0.01 0.02 0.03 0.01 0.01 0.01 0.01 0.01 0.01 0.01 0.02 0.05 0.03
0.01 0.01 0.01 0.01 0.02 0.05 0.05 0.04 0.04 0.02 0.02 0.01 0.02 0.06 0.06 0.05 0.05 0.03 0.02 0.02 0.03 0.04 0.03 0.04 0.06 0.06 0.07 0.04 0.03 0.02 0.01 0.01 0.01 0.01 0.01 0.01 0.00 0.01 0.01 0.01 0.01 0.01 0.01 0.01 0.01 0.02 0.03 0.04 0.03
0.01 0.01 0.01 0.02 0.03 0.06 0.06 0.03 0.04 0.03 0.02 0.01 0.01 0.04 0.04 0.03 0.04 0.03 0.02 0.02 0.02 0.03 0.03 0.02 0.02 0.03 0.03 0.02 0.01 0.01 0.01 0.01 0.01 0.01 0.01 0.01 0.00 0.00 0.00 0.01 0.01 0.01 0.02 0.02 0.01 0.02 0.04 0.05 0.03
0.01 0.02 0.02 0.03 0.05 0.06 0.06 0.04 0.04 0.03 0.02 0.01 0.01 0.03 0.05 0.03 0.02 0.02 0.02 0.02 0.02 0.01 0.01 0.00 0.00 0.00 0.00 0.00 0.01 0.01 0.01 0.01 0.01 0.01 0.01 0.01 0.00 0.00 0.00 0.00 0.02 0.03 0.02 0.02 0.02 0.02 0.02 0.02 0.01
0.02 0.03 0.02 0.02 0.04 0.07 0.07 0.05 0.05 0.05 0.04 0.03 0.01 0.03 0.06 0.03 0.02 0.01 0.01 0.01 0.01 0.00 0.00 0.00 0.00 0.00 0.00 0.00 0.00 0.00 0.00 0.01 0.01 0.00 0.00 0.00 0.00 0.00 0.00 0.00 0.01 0.01 0.01 0.02 0.02 0.02 0.01 0.01 0.01
0.02 0.03 0.02 0.02 0.04 0.07 0.07 0.05 0.03 0.04 0.04 0.03 0.03 0.04 0.05 0.04 0.04 0.02 0.02 0.02 0.01 0.00 0.00 0.00 0.00 0.00 0.00 0.00 0.00 0.00 0.00 0.00 0.00 0.00 0.00 0.00 0.00 0.00 0.00 0.00 0.00 0.00 0.00 0.01 0.02 0.02 0.01 0.02 0.02
0.02 0.02 0.02 0.03 0.04 0.06 0.06 0.04 0.03 0.03 0.03 0.02 0.03 0.02 0.02 0.04 0.04 0.02 0.01 0.02 0.01 0.00 0.00 0.00 0.00 0.00 0.00 0.00 0.00 0.00 0.00 0.00 0.00 0.00 0.00 0.00 0.00 0.00 0.00 0.00 0.00 0.00 0.00 0.01 0.02 0.03 0.01 0.01 0.01
0.02 0.02 0.03 0.05 0.04 0.06 0.05 0.03 0.03 0.04 0.02 0.01 0.02 0.02 0.02 0.04 0.04 0.01 0.01 0.01 0.01 0.00 0.00 0.00 0.00 0.00 0.00 0.00 0.00 0.00 0.00 0.00 0.00 0.00 0.00 0.00 0.00 0.00 0.00 0.00 0.00 0.00 0.01 0.02 0.03 0.02 0.01 0.02 0.02
0.01 0.01 0.03 0.07 0.06 0.07 0.05 0.04 0.03 0.02 0.02 0.03 0.05 0.04 0.03 0.04 0.04 0.02 0.01 0.01 0.00 0.00 0.00 0.00 0.00 0.00 0.00 0.00 0.00 0.00 0.00 0.00 0.00 0.00 0.00 0.00 0.00 0.00 0.00 0.00 0.01 0.00 0.01 0.02 0.02 0.02 0.02 0.02 0.02
0.01 0.02 0.05 0.08 0.09 0.10 0.06 0.06 0.03 0.02 0.04 0.04 0.06 0.05 0.05 0.05 0.04 0.02 0.01 0.00 0.00 0.00 0.00 0.00 0.00 0.00 0.00 0.00 0.00 0.00 0.00 0.00 0.00 0.00 0.00 0.00 0.00 0.00 0.00 0.00 0.00 0.00 0.00 0.01 0.02 0.03 0.02 0.02 0.01
0.02 0.03 0.04 0.08 0.11 0.12 0.08 0.09 0.04 0.03 0.06 0.04 0.03 0.04 0.07 0.07 0.04 0.02 0.00 0.00 0.00 0.00 0.00 0.00 0.00 0.00 0.00 0.00 0.00 0.00 0.00 0.00 0.00 0.00 0.00 0.00 0.00 0.00 0.00 0.00 0.00 0.00 0.00 0.01 0.02 0.03 0.02 0.02 0.02
0.02 0.03 0.04 0.05 0.08 0.13 0.09 0.09 0.06 0.05 0.07 0.05 0.03 0.03 0.04 0.05 0.04 0.02 0.01 0.00 0.00 0.00 0.00 0.00 0.00 0.00 0.00 0.00 0.00 0.00 0.00 0.00 0.00 0.00 0.00 0.00 0.00 0.00 0.00 0.00 0.00 0.00 0.01 0.01 0.01 0.02 0.03 0.03 0.03
0.02 0.02 0.03 0.05 0.07 0.11 0.09 0.09 0.08 0.04 0.05 0.04 0.03 0.03 0.04 0.04 0.03 0.02 0.01 0.00 0.00 0.00 0.00 0.00 0.00 0.00 0.00 0.00 0.00 0.00 0.00 0.00 0.00 0.00 0.00 0.00 0.00 0.00 0.00 0.00 0.00 0.00 0.01 0.01 0.02 0.03 0.03 0.04 0.03
0.01 0.02 0.03 0.04 0.06 0.09 0.08 0.09 0.08 0.04 0.02 0.02 0.02 0.02 0.04 0.06 0.05 0.04 0.02 0.00 0.00 0.00 0.00 0.00 0.00 0.00 0.00 0.00 0.00 0.00 0.00 0.00 0.00 0.00 0.00 0.00 0.00 0.00 0.00 0.01 0.01 0.00 0.01 0.01 0.01 0.03 0.03 0.03 0.03
0.01 0.02 0.03 0.04 0.05 0.07 0.06 0.07 0.07 0.04 0.01 0.01 0.01 0.01 0.02 0.04 0.04 0.04 0.02 0.01 0.00 0.00 0.00 0.00 0.00 0.00 0.00 0.00 0.00 0.00 0.00 0.00 0.00 0.00 0.00 0.00 0.00 0.00 0.00 0.00 0.01 0.00 0.01 0.01 0.01 0.03 0.03 0.02 0.03
0.01 0.01 0.02 0.04 0.05 0.05 0.04 0.07 0.07 0.05 0.02 0.01 0.02 0.01 0.01 0.03 0.04 0.03 0.02 0.01 0.00 0.00 0.00 0.00 0.00 0.00 0.00 0.00 0.00 0.00 0.00 0.00 0.00 0.00 0.00 0.00 0.00 0.00 0.00 0.00 0.00 0.01 0.01 0.01 0.01 0.02 0.03 0.02 0.02
0.01 0.01 0.01 0.03 0.06 0.06 0.05 0.07 0.05 0.04 0.04 0.02 0.01 0.02 0.02 0.03 0.05 0.04 0.03 0.01 0.00 0.00 0.00 0.00 0.00 0.00 0.00 0.00 0.00 0.00 0.00 0.00 0.00 0.00 0.00 0.00 0.00 0.01 0.00 0.00 0.00 0.00 0.01 0.01 0.01 0.01 0.01 0.02 0.02
0.02 0.01 0.02 0.03 0.05 0.06 0.04 0.05 0.04 0.03 0.04 0.03 0.01 0.01 0.02 0.02 0.04 0.04 0.03 0.02 0.01 0.00 0.00 0.00 0.00 0.00 0.00 0.00 0.00 0.00 0.00 0.00 0.00 0.00 0.01 0.00 0.00 0.00 0.00 0.00 0.00 0.00 0.00 0.00 0.00 0.01 0.01 0.01 0.02
0.02 0.03 0.03 0.03 0.04 0.05 0.03 0.03 0.02 0.02 0.02 0.01 0.01 0.00 0.01 0.01 0.02 0.03 0.03 0.03 0.01 0.00 0.00 0.00 0.00 0.00 0.00 0.00 0.00 0.00 0.00 0.00 0.00 0.01 0.01 0.00 0.00 0.00 0.00 0.00 0.00 0.00 0.00 0.00 0.00 0.00 0.00 0.01 0.02
0.04 0.04 0.04 0.04 0.04 0.04 0.02 0.01 0.01 0.01 0.01 0.01 0.00 0.01 0.00 0.00 0.01 0.02 0.02 0.03 0.01 0.00 0.00 0.00 0.00 0.00 0.00 0.00 0.00 0.00 0.00 0.00 0.00 0.00 0.00 0.00 0.00 0.00 0.00 0.00 0.00 0.00 0.00 0.00 0.00 0.00 0.00 0.00 0.01
0.04 0.04 0.05 0.04 0.03 0.02 0.02 0.01 0.00 0.00 0.00 0.00 0.01 0.01 0.00 0.00 0.00 0.01 0.01 0.02 0.02 0.01 0.01 0.00 0.00 0.00 0.00 0.00 0.00 0.00 0.00 0.00 0.00 0.00 0.00 0.00 0.00 0.00 0.00 0.00 0.00 0.00 0.00 0.00 0.00 0.00 0.00 0.00 0.00
0.05 0.05 0.04 0.04 0.03 0.02 0.02 0.01 0.00 0.00 0.00 0.00 0.01 0.01 0.00 0.00 0.00 0.00 0.00 0.01 0.01 0.01 0.01 0.01 0.00 0.00 0.00 0.00 0.00 0.00 0.00 0.00 0.00 0.00 0.00 0.00 0.00 0.00 0.00 0.00 0.00 0.00 0.00 0.00 0.00 0.00 0.00 0.00 0.00
0.04 0.04 0.04 0.04 0.03 0.03 0.02 0.01 0.01 0.00 0.01 0.00 0.00 0.00 0.00 0.00 0.00 0.00 0.00 0.00 0.00 0.01 0.01 0.01 0.00 0.00 0.00 0.00 0.00 0.00 0.00 0.00 0.00 0.00 0.00 0.00 0.00 0.00 0.00 0.00 0.00 0.00 0.00 0.00 0.00 0.00 0.00 0.00 0.00
0.04 0.05 0.04 0.04 0.03 0.02 0.02 0.01 0.01 0.01 0.01 0.01 0.00 0.00 0.00 0.00 0.00 0.00 0.01 0.00 0.00 0.00 0.00 0.01 0.00 0.00 0.00 0.00 0.00 0.00 0.00 0.00 0.00 0.00 0.00 0.00 0.00 0.00 0.00 0.00 0.00 0.00 0.00 0.00 0.00 0.00 0.00 0.00 0.00
0.02 0.03 0.04 0.04 0.03 0.02 0.02 0.01 0.01 0.01 0.01 0.01 0.01 0.00 0.00 0.00 0.00 0.00 0.01 0.01 0.00 0.00 0.00 0.01 0.01 0.01 0.00 0.00 0.00 0.00 0.00 0.00 0.00 0.00 0.00 0.00 0.00 0.00 0.00 0.00 0.00 0.00 0.00 0.00 0.00 0.00 0.00 0.00 0.00
MSLP
1009.78 1010.13 1010.81 1011.74 1012.76 1013.73 1014.53 1015.09 1015.42 1015.54 1015.56 1015.54 1015.57 1015.66 1015.81 1015.97 1016.08 1016.11 1016.02 1015.85 1015.63 1015.41 1015.26 1015.20 1015.26 1015.39 1015.54 1015.67 1015.72 1015.68 1015.55 1015.38 1015.20 1015.07 1015.01 1015.04 1015.13 1015.24 1015.35 1015.40 1015.38 1015.31 1015.20 1015.08 1014.99 1014.94 1014.94 1014.95 1014.96
1009.89 1010.42 1011.26 1012.29 1013.36 1014.31 1015.04 1015.50 1015.69 1015.69 1015.59 1015.50 1015.48 1015.55 1015.70 1015.88 1016.03 1016.09 1016.04 1015.90 1015.72 1015.55 1015.45 1015.44 1015.54 1015.72 1015.90 1016.05 1016.11 1016.07 1015.95 1015.77 1015.58 1015.44 1015.36 1015.36 1015.42 1015.48 1015.54 1015.53 1015.48 1015.37 1015.25 1015.14 1015.07 1015.04 1015.04 1015.05 1015.03
1010.16 1010.84 1011.80 1012.88 1013.94 1014.82 1015.44 1015.77 1015.83 1015.71 1015.54 1015.40 1015.36 1015.45 1015.62 1015.83 1016.01 1016.10 1016.08 1015.98 1015.83 1015.70 1015.64 1015.68 1015.81 1016.01 1016.22 1016.38 1016.45 1016.42 1016.29 1016.12 1015.93 1015.79 1015.70 1015.67 1015.68 1015.70 1015.69 1015.64 1015.54 1015.41 1015.29 1015.20 1015.15 1015.14 1015.15 1015.15 1015.10
1010.60 1011.40 1012.42 1013.49 1014.48 1015.25 1015.74 1015.92 1015.86 1015.66 1015.43 1015.28 1015.27 1015.38 1015.60 1015.85 1016.06 1016.18 1016.18 1016.10 1015.98 1015.88 1015.84 1015.91 1016.06 1016.27 1016.48 1016.64 1016.71 1016.68 1016.56 1016.39 1016.22 1016.08 1015.98 1015.93 1015.91 1015.88 1015.82 1015.72 1015.59 1015.45 1015.33 1015.25 1015.22 1015.24 1015.26 1015.24 1015.16
1011.17 1012.05 1013.07 1014.10 1014.97 1015.60 1015.93 1015.97 1015.82 1015.56 1015.33 1015.21 1015.24 1015.41 1015.68 1015.97 1016.20 1016.33 1016.35 1016.28 1016.17 1016.08 1016.06 1016.13 1016.29 1016.50 1016.69 1016.83 1016.89 1016.85 1016.73 1016.57 1016.41 1016.29 1016.20 1016.14 1016.10 1016.04 1015.94 1015.80 1015.64 1015.48 1015.36 1015.30 1015.29 1015.31 1015.33 1015.30 1015.19
1011.84 1012.75 1013.73 1014.65 1015.38 1015.85 1016.03 1015.96 1015.74 1015.47 1015.26 1015.20 1015.30 1015.54 1015.86 1016.18 1016.43 1016.57 1016.58 1016.50 1016.39 1016.30 1016.29 1016.36 1016.51 1016.68 1016.85 1016.96 1016.98 1016.92 1016.80 1016.65 1016.51 1016.41 1016.34 1016.30 1016.25 1016.17 1016.04 1015.87 1015.69 1015.52 1015.39 1015.33 1015.33 1015.35 1015.37 1015.32 1015.18
1012.53 1013.42 1014.33 1015.12 1015.69 1016.00 1016.05 1015.90 1015.65 1015.41 1015.27 1015.29 1015.48 1015.79 1016.15 1016.49 1016.74 1016.85 1016.85 1016.75 1016.63 1016.54 1016.52 1016.58 1016.70 1016.84 1016.97 1017.03 1017.01 1016.92 1016.79 1016.65 1016.54 1016.46 1016.42 1016.40 1016.36 1016.28 1016.14 1015.95 1015.75 1015.56 1015.43 1015.36 1015.34 1015.36 1015.36 1015.30 1015.15
1013.18 1014.03 1014.82 1015.47 1015.89 1016.07 1016.02 1015.83 1015.59 1015.40 1015.36 1015.48 1015.75 1016.12 1016.52 1016.86 1017.08 1017.16 1017.12 1017.00 1016.87 1016.77 1016.73 1016.78 1016.88 1016.98 1017.06 1017.07 1017.01 1016.90 1016.75 1016.61 1016.52 1016.47 1016.46 1016.47 1016.45 1016.37 1016.23 1016.04 1015.82 1015.62 1015.47 1015.38 1015.35 1015.36 1015.34 1015.27 1015.12
1013.75 1014.51 1015.19 1015.70 1015.99 1016.06 1015.95 1015.75 1015.56 1015.46 1015.51 1015.73 1016.08 1016.50 1016.90 1017.22 1017.41 1017.45 1017.37 1017.22 1017.07 1016.96 1016.92 1016.96 1017.04 1017.11 1017.15 1017.12 1017.02 1016.87 1016.71 1016.57 1016.49 1016.47 1016.49 1016.52 1016.52 1016.47 1016.34 1016.14 1015.92 1015.71 1015.54 1015.43 1015.39 1015.38 1015.36 1015.29 1015.15
1014.21 1014.88 1015.43 1015.81 1015.99 1015.99 1015.86 1015.69 1015.57 1015.56 1015.72 1016.02 1016.43 1016.87 1017.26 1017.55 1017.68 1017.67 1017.55 1017.37 1017.21 1017.10 1017.07 1017.11 1017.18 1017.24 1017.25 1017.19 1017.06 1016.89 1016.71 1016.57 1016.50 1016.49 1016.54 1016.59 1016.61 1016.57 1016.45 1016.27 1016.05 1015.83 1015.65 1015.54 1015.49 1015.47 1015.45 1015.40 1015.29
1014.56 1015.13 1015.57 1015.84 1015.94 1015.90 1015.78 1015.66 1015.62 1015.71 1015.95 1016.31 1016.75 1017.19 1017.55 1017.78 1017.85 1017.79 1017.63 1017.45 1017.28 1017.19 1017.17 1017.22 1017.30 1017.36 1017.36 1017.29 1017.15 1016.97 1016.79 1016.64 1016.57 1016.57 1016.62 1016.68 1016.72 1016.69 1016.59 1016.42 1016.22 1016.01 1015.84 1015.73 1015.68 1015.67 1015.67 1015.65 1015.58
1014.86 1015.32 1015.65 1015.84 1015.89 1015.84 1015.75 1015.69 1015.72 1015.89 1016.18 1016.58 1017.01 1017.41 1017.72 1017.90 1017.92 1017.81 1017.63 1017.44 1017.29 1017.22 1017.23 1017.31 1017.41 1017.49 1017.51 1017.44 1017.31 1017.13 1016.95 1016.80 1016.73 1016.72 1016.77 1016.83 1016.86 1016.85 1016.76 1016.62 1016.44 1016.26 1016.11 1016.03 1016.00 1016.01 1016.04 1016.06 1016.05
1015.13 1015.50 1015.75 1015.87 1015.89 1015.85 1015.80 1015.79 1015.88 1016.09 1016.40 1016.79 1017.19 1017.54 1017.79 1017.90 1017.88 1017.74 1017.56 1017.38 1017.25 1017.21 1017.26 1017.38 1017.52 1017.63 1017.67 1017.64 1017.52 1017.36 1017.19 1017.05 1016.97 1016.95 1016.97 1017.02 1017.05 1017.04 1016.97 1016.85 1016.71 1016.57 1016.47 1016.42 1016.43 1016.48 1016.56 1016.63 1016.67
1015.45 1015.73 1015.91 1015.99 1016.00 1015.97 1015.95 1015.98 1016.10 1016.31 1016.61 1016.95 1017.29 1017.57 1017.75 1017.81 1017.76 1017.62 1017.45 1017.29 1017.21 1017.21 1017.30 1017.45 1017.62 1017.77 1017.86 1017.87 1017.80 1017.67 1017.52 1017.39 1017.30 1017.25 1017.25 1017.27 1017.29 1017.27 1017.22 1017.13 1017.03 1016.95 1016.90 1016.90 1016.96 1017.05 1017.17 1017.29 1017.39
1015.83 1016.04 1016.17 1016.23 1016.23 1016.22 1016.22 1016.26 1016.36 1016.55 1016.79 1017.05 1017.31 1017.52 1017.64 1017.67 1017.61 1017.48 1017.35 1017.24 1017.19 1017.23 1017.36 1017.54 1017.75 1017.93 1018.06 1018.12 1018.10 1018.02 1017.91 1017.79 1017.69 1017.63 1017.59 1017.58 1017.57 1017.54 1017.50 1017.45 1017.39 1017.36 1017.37 1017.42 1017.53 1017.67 1017.83 1017.99 1018.14
1016.27 1016.42 1016.52 1016.56 1016.57 1016.57 1016.56 1016.59 1016.65 1016.77 1016.92 1017.09 1017.26 1017.39 1017.47 1017.49 1017.45 1017.38 1017.30 1017.24 1017.25 1017.32 1017.47 1017.67 1017.89 1018.11 1018.28 1018.39 1018.42 1018.40 1018.33 1018.23 1018.14 1018.05 1017.99 1017.94 1017.90 1017.86 1017.83 1017.80 1017.78 1017.80 1017.85 1017.95 1018.10 1018.27 1018.46 1018.65 1018.83
1016.74 1016.85 1016.93 1016.97 1016.98 1016.97 1016.95 1016.93 1016.92 1016.94 1016.98 1017.04 1017.12 1017.20 1017.26 1017.30 1017.32 1017.31 1017.31 1017.32 1017.38 1017.48 1017.64 1017.84 1018.07 1018.29 1018.49 1018.65 1018.74 1018.77 1018.75 1018.69 1018.61 1018.51 1018.42 1018.34 1018.27 1018.22 1018.19 1018.17 1018.19 1018.24 1018.33 1018.46 1018.63 1018.82 1019.02 1019.22 1019.41
1017.19 1017.28 1017.34 1017.38 1017.39 1017.37 1017.31 1017.22 1017.11 1017.01 1016.93 1016.88 1016.88 1016.92 1016.99 1017.08 1017.18 1017.28 1017.37 1017.47 1017.57 1017.70 1017.86 1018.04 1018.25 1018.48 1018.69 1018.88 1019.03 1019.12 1019.16 1019.14 1019.08 1018.99 1018.88 1018.78 1018.68 1018.61 1018.57 1018.57 1018.61 1018.68 1018.79 1018.94 1019.10 1019.29 1019.48 1019.67 1019.86
1017.57 1017.65 1017.71 1017.75 1017.75 1017.70 1017.58 1017.39 1017.17 1016.93 1016.72 1016.57 1016.50 1016.53 1016.63 1016.81 1017.02 1017.24 1017.45 1017.64 1017.80 1017.95 1018.09 1018.25 1018.44 1018.64 1018.86 1019.08 1019.27 1019.42 1019.52 1019.55 1019.52 1019.45 1019.34 1019.22 1019.12 1019.03 1018.99 1018.99 1019.03 1019.11 1019.23 1019.36 1019.51 1019.67 1019.83 1020.00 1020.18
1017.85 1017.92 1018.00 1018.04 1018.02 1017.92 1017.72 1017.42 1017.07 1016.69 1016.35 1016.09 1015.97 1015.99 1016.15 1016.43 1016.77 1017.13 1017.47 1017.76 1017.99 1018.16 1018.30 1018.44 1018.58 1018.76 1018.98 1019.21 1019.44 1019.65 1019.81 1019.90 1019.91 1019.87 1019.77 1019.66 1019.55 1019.46 1019.41 1019.41 1019.45 1019.53 1019.63 1019.74 1019.86 1019.98 1020.10 1020.24 1020.39
1018.03 1018.12 1018.19 1018.23 1018.19 1018.02 1017.73 1017.31 1016.80 1016.27 1015.80 1015.45 1015.27 1015.30 1015.53 1015.91 1016.40 1016.91 1017.39 1017.79 1018.09 1018.30 1018.44 1018.55 1018.67 1018.82 1019.03 1019.27 1019.54 1019.79 1020.01 1020.16 1020.22 1020.22 1020.15 1020.05 1019.95 1019.86 1019.82 1019.82 1019.86 1019.92 1020.00 1020.09 1020.17 1020.24 1020.32 1020.41 1020.53
1018.15 1018.25 1018.34 1018.37 1018.29 1018.05 1017.65 1017.09 1016.43 1015.75 1015.14 1014.68 1014.45 1014.48 1014.77 1015.25 1015.87 1016.53 1017.15 1017.66 1018.05 1018.31 1018.47 1018.57 1018.67 1018.81 1019.00 1019.25 1019.55 1019.84 1020.11 1020.32 1020.44 1020.48 1020.45 1020.38 1020.29 1020.22 1020.19 1020.19 1020.23 1020.29 1020.35 1020.41 1020.45 1020.48 1020.51 1020.56 1020.64
1018.25 1018.38 1018.48 1018.51 1018.38 1018.07 1017.55 1016.86 1016.04 1015.20 1014.44 1013.88 1013.59 1013.60 1013.92 1014.48 1015.21 1016.00 1016.74 1017.37 1017.85 1018.17 1018.37 1018.48 1018.58 1018.71 1018.90 1019.16 1019.48 1019.81 1020.12 1020.37 1020.55 1020.63 1020.65 1020.61 1020.56 1020.51 1020.49 1020.51 1020.56 1020.62 1020.67 1020.71 1020.72 1020.71 1020.70 1020.71 1020.76
1018.38 1018.55 1018.67 1018.69 1018.53 1018.14 1017.52 1016.68 1015.71 1014.71 1013.82 1013.14 1012.76 1012.74 1013.05 1013.66 1014.46 1015.34 1016.19 1016.93 1017.50 1017.89 1018.14 1018.29 1018.41 1018.55 1018.75 1019.02 1019.35 1019.70 1020.05 1020.34 1020.55 1020.68 1020.74 1020.74 1020.73 1020.72 1020.73 1020.77 1020.83 1020.90 1020.96 1020.99 1020.99 1020.96 1020.92 1020.90 1020.92
1018.57 1018.78 1018.93 1018.94 1018.75 1018.30 1017.58 1016.63 1015.53 1014.39 1013.35 1012.55 1012.07 1011.98 1012.26 1012.87 1013.70 1014.63 1015.56 1016.37 1017.02 1017.50 1017.81 1018.01 1018.17 1018.33 1018.55 1018.84 1019.18 1019.55 1019.91 1020.23 1020.47 1020.64 1020.74 1020.79 1020.81 1020.84 1020.89 1020.97 1021.06 1021.15 1021.23 1021.27 1021.26 1021.23 1021.18 1021.13 1021.12
1018.78 1019.04 1019.23 1019.25 1019.04 1018.55 1017.77 1016.72 1015.51 1014.26 1013.10 1012.18 1011.59 1011.41 1011.61 1012.17 1012.98 1013.93 1014.88 1015.75 1016.48 1017.02 1017.41 1017.68 1017.89 1018.10 1018.34 1018.64 1018.99 1019.36 1019.73 1020.06 1020.33 1020.53 1020.66 1020.75 1020.82 1020.90 1020.99 1021.11 1021.24 1021.37 1021.47 1021.54 1021.55 1021.53 1021.47 1021.42 1021.39
1018.97 1019.28 1019.50 1019.54 1019.34 1018.83 1018.01 1016.91 1015.64 1014.30 1013.05 1012.03 1011.34 1011.04 1011.15 1011.62 1012.37 1013.28 1014.23 1015.13 1015.90 1016.51 1016.97 1017.32 1017.59 1017.85 1018.13 1018.44 1018.80 1019.17 1019.54 1019.88 1020.16 1020.38 1020.55 1020.68 1020.80 1020.93 1021.07 1021.23 1021.41 1021.57 1021.72 1021.81 1021.86 1021.85 1021.81 1021.76 1021.72
1019.05 1019.40 1019.65 1019.72 1019.53 1019.02 1018.21 1017.11 1015.81 1014.44 1013.14 1012.04 1011.26 1010.86 1010.85 1011.21 1011.87 1012.71 1013.63 1014.52 1015.32 1015.99 1016.52 1016.94 1017.29 1017.60 1017.92 1018.26 1018.62 1019.00 1019.36 1019.70 1019.99 1020.23 1020.43 1020.60 1020.77 1020.94 1021.14 1021.35 1021.57 1021.78 1021.96 1022.09 1022.17 1022.20 1022.18 1022.14 1022.09
1018.95 1019.32 1019.59 1019.67 1019.49 1019.02 1018.23 1017.17 1015.90 1014.55 1013.25 1012.13 1011.28 1010.80 1010.68 1010.93 1011.47 1012.22 1013.07 1013.94 1014.74 1015.45 1016.05 1016.54 1016.97 1017.34 1017.71 1018.08 1018.45 1018.83 1019.19 1019.53 1019.83 1020.10 1020.33 1020.54 1020.76 1020.98 1021.22 1021.48 1021.74 1021.98 1022.20 1022.37 1022.48 1022.54 1022.55 1022.53 1022.50
1018.65 1019.00 1019.24 1019.32 1019.15 1018.71 1017.97 1016.98 1015.79 1014.51 1013.25 1012.15 1011.29 1010.75 1010.55 1010.69 1011.12 1011.77 1012.55 1013.37 1014.17 1014.91 1015.56 1016.12 1016.62 1017.06 1017.48 1017.88 1018.28 1018.67 1019.04 1019.38 1019.70 1019.98 1020.25 1020.51 1020.77 1021.04 1021.32 1021.61 1021.90 1022.18 1022.42 1022.62 1022.76 1022.85 1022.89 1022.90 1022.88
Thickness
5800 5802 5803 5796 5785 5775 5763 5767 5774 5771 5771 5775 5778 5775 5769 5763 5758 5749 5760 5768 5767 5765 5762 5758 5755 5754 5753 5752 5751 5749 5748 5747 5746 5745 5744 5744 5743 5741 5741 5740 5740 5740 5740 5740 5740 5740 5741 5742 5743
5801 5802 5797 5790 5777 5763 5758 5768 5770 5770 5773 5777 5776 5773 5769 5761 5764 5762 5763 5765 5765 5763 5760 5757 5753 5752 5750 5749 5748 5747 5746 5745 5744 5743 5742 5741 5740 5739 5739 5738 5738 5737 5737 5737 5737 5738 5738 5739 5740
5800 5799 5790 5782 5771 5764 5760 5767 5769 5772 5776 5774 5769 5770 5765 5758 5762 5763 5764 5765 5763 5761 5758 5754 5751 5749 5748 5747 5747 5745 5744 5743 5742 5741 5740 5739 5738 5737 5736 5736 5735 5735 5735 5735 5735 5735 5736 5737 5738
5796 5791 5786 5776 5762 5764 5768 5768 5771 5768 5770 5772 5769 5762 5762 5763 5765 5765 5765 5764 5762 5759 5756 5752 5749 5747 5746 5746 5744 5743 5742 5741 5740 5739 5738 5737 5736 5735 5734 5734 5733 5733 5733 5733 5733 5733 5734 5735 5736
5793 5784 5773 5763 5759 5763 5769 5771 5771 5767 5765 5766 5767 5757 5753 5760 5765 5765 5763 5762 5760 5757 5754 5751 5747 5746 5745 5744 5743 5741 5740 5739 5738 5737 5736 5735 5734 5733 5732 5732 5731 5731 5731 5731 5731 5731 5732 5733 5734
5782 5779 5765 5755 5754 5760 5765 5769 5768 5763 5762 5764 5763 5755 5750 5758 5760 5760 5760 5759 5758 5756 5753 5750 5746 5745 5743 5742 5741 5740 5739 5738 5737 5736 5735 5733 5732 5731 5730 5730 5729 5729 5729 5729 5729 5729 5730 5730 5731
5774 5769 5759 5757 5753 5754 5759 5767 5764 5761 5759 5761 5764 5753 5749 5754 5757 5758 5758 5757 5755 5754 5752 5751 5749 5746 5743 5741 5739 5738 5737 5736 5735 5734 5733 5731 5730 5729 5728 5728 5727 5727 5726 5726 5727 5727 5727 5728 5728
5776 5768 5756 5755 5751 5750 5759 5763 5764 5762 5758 5765 5765 5752 5746 5753 5756 5756 5755 5754 5754 5753 5752 5751 5748 5747 5746 5743 5739 5737 5736 5735 5734 5732 5731 5730 5729 5728 5727 5727 5725 5724 5724 5724 5724 5724 5724 5725 5726
5774 5760 5749 5750 5750 5750 5757 5758 5760 5765 5761 5760 5763 5761 5759 5757 5755 5752 5750 5750 5751 5751 5752 5751 5749 5747 5745 5743 5739 5738 5736 5734 5733 5732 5730 5730 5731 5730 5728 5724 5722 5722 5721 5721 5721 5721 5722 5723 5724
5765 5750 5747 5752 5756 5754 5755 5756 5756 5756 5753 5751 5753 5755 5756 5754 5752 5749 5748 5748 5748 5749 5751 5751 5749 5747 5745 5743 5740 5739 5738 5735 5734 5733 5731 5731 5729 5727 5725 5721 5720 5719 5719 5719 5719 5719 5720 5723 5725
5757 5747 5748 5751 5755 5755 5752 5752 5756 5752 5746 5750 5748 5748 5750 5750 5749 5749 5748 5748 5749 5750 5749 5750 5749 5747 5745 5743 5741 5739 5737 5734 5734 5731 5730 5729 5728 5727 5725 5724 5722 5720 5719 5720 5718 5720 5722 5722 5722
5748 5744 5747 5748 5751 5750 5749 5750 5750 5750 5750 5756 5755 5752 5749 5747 5747 5747 5747 5747 5748 5748 5747 5747 5748 5747 5745 5743 5740 5739 5737 5735 5733 5731 5730 5729 5728 5726 5725 5723 5721 5720 5718 5717 5718 5718 5718 5720 5721
5742 5739 5742 5745 5745 5746 5746 5744 5744 5743 5751 5754 5751 5748 5746 5746 5746 5747 5748 5747 5747 5745 5745 5746 5746 5746 5744 5741 5739 5739 5736 5735 5733 5729 5729 5728 5727 5726 5724 5722 5719 5719 5717 5716 5715 5716 5716 5716 5717
5739 5738 5738 5740 5741 5741 5739 5739 5739 5738 5746 5746 5744 5743 5745 5744 5744 5745 5745 5745 5746 5745 5745 5744 5744 5742 5742 5741 5739 5737 5735 5732 5732 5729 5728 5727 5725 5724 5722 5721 5718 5717 5716 5715 5714 5714 5713 5713 5713
5739 5732 5731 5733 5735 5736 5737 5729 5733 5737 5741 5739 5739 5740 5741 5742 5743 5743 5744 5745 5746 5746 5745 5743 5741 5740 5740 5739 5737 5735 5734 5733 5731 5728 5727 5726 5724 5723 5722 5721 5719 5716 5715 5714 5713 5712 5711 5711 5711
5732 5725 5717 5724 5730 5731 5728 5715 5729 5737 5736 5733 5735 5737 5736 5738 5741 5743 5744 5745 5746 5745 5744 5741 5740 5739 5737 5735 5734 5734 5733 5731 5729 5727 5726 5725 5723 5722 5720 5719 5717 5715 5714 5713 5711 5711 5710 5709 5708
5721 5714 5712 5716 5726 5727 5725 5717 5725 5734 5733 5730 5732 5734 5734 5736 5739 5741 5743 5743 5744 5744 5742 5740 5739 5737 5735 5733 5732 5731 5731 5728 5727 5726 5724 5723 5722 5721 5720 5717 5716 5715 5714 5712 5711 5710 5709 5706 5705
5711 5712 5710 5711 5720 5723 5721 5720 5724 5730 5730 5731 5732 5733 5734 5734 5736 5739 5741 5741 5742 5742 5741 5739 5736 5736 5734 5732 5732 5730 5729 5728 5725 5723 5721 5720 5720 5719 5718 5717 5716 5715 5713 5711 5709 5707 5706 5704 5704
5716 5712 5710 5712 5719 5717 5718 5719 5722 5727 5728 5729 5731 5732 5733 5734 5737 5738 5738 5739 5739 5739 5739 5737 5735 5734 5732 5731 5730 5728 5727 5726 5724 5721 5719 5718 5718 5717 5717 5716 5715 5713 5712 5710 5710 5707 5705 5704 5705
5712 5708 5706 5709 5717 5716 5714 5717 5724 5726 5727 5731 5733 5733 5734 5734 5734 5734 5734 5736 5737 5736 5736 5736 5735 5734 5732 5730 5730 5728 5725 5725 5722 5720 5718 5718 5717 5716 5716 5716 5714 5712 5710 5710 5709 5707 5706 5705 5705
5707 5707 5706 5705 5709 5715 5711 5709 5717 5725 5728 5730 5732 5735 5737 5735 5734 5733 5733 5734 5734 5734 5734 5734 5734 5732 5730 5729 5728 5726 5724 5723 5722 5719 5718 5716 5715 5714 5714 5714 5714 5712 5712 5710 5708 5708 5706 5704 5705
5701 5711 5709 5705 5701 5701 5707 5699 5714 5723 5723 5725 5729 5733 5735 5735 5735 5734 5733 5733 5733 5733 5734 5734 5732 5732 5730 5728 5727 5726 5723 5721 5720 5719 5717 5716 5714 5714 5713 5713 5713 5713 5712 5710 5710 5709 5707 5705 5703
5704 5710 5709 5706 5703 5701 5706 5702 5713 5723 5720 5725 5731 5734 5736 5736 5736 5735 5734 5734 5735 5734 5733 5732 5731 5729 5728 5727 5725 5724 5723 5721 5720 5719 5717 5717 5714 5713 5712 5712 5713 5712 5712 5710 5709 5708 5707 5706 5704
5708 5705 5703 5704 5702 5691 5703 5702 5708 5724 5727 5731 5734 5737 5737 5737 5737 5736 5735 5734 5733 5732 5730 5729 5728 5726 5726 5725 5725 5724 5722 5720 5718 5717 5716 5716 5715 5713 5712 5711 5712 5711 5711 5710 5708 5707 5705 5705 5703
5703 5696 5686 5684 5686 5691 5706 5703 5714 5733 5738 5738 5738 5739 5740 5740 5738 5735 5733 5732 5731 5729 5728 5728 5726 5725 5724 5724 5724 5723 5722 5720 5719 5718 5716 5716 5715 5713 5712 5712 5711 5710 5709 5708 5707 5707 5706 5705 5703
5701 5700 5688 5680 5683 5693 5701 5703 5724 5737 5740 5742 5743 5743 5742 5741 5740 5738 5736 5734 5732 5730 5729 5728 5727 5725 5724 5724 5725 5724 5722 5721 5720 5718 5717 5716 5715 5713 5712 5710 5710 5708 5707 5707 5706 5707 5705 5705 5703
5698 5699 5703 5696 5694 5690 5701 5713 5725 5735 5737 5739 5740 5741 5741 5742 5740 5739 5738 5736 5734 5732 5730 5729 5727 5726 5725 5725 5724 5724 5723 5721 5719 5718 5717 5715 5714 5712 5711 5710 5709 5707 5706 5706 5705 5704 5704 5702 5702
5703 5702 5697 5692 5683 5683 5696 5706 5716 5725 5730 5735 5738 5739 5741 5742 5742 5740 5739 5737 5736 5734 5732 5730 5729 5728 5726 5725 5724 5722 5722 5720 5719 5718 5716 5715 5714 5711 5710 5710 5709 5707 5705 5704 5703 5703 5701 5701 5698
5695 5695 5696 5697 5696 5689 5688 5704 5729 5731 5734 5736 5739 5743 5743 5743 5742 5741 5740 5739 5737 5735 5733 5731 5730 5728 5726 5725 5724 5722 5721 5719 5718 5716 5714 5713 5712 5711 5710 5708 5708 5707 5705 5704 5701 5701 5699 5699 5699
5703 5701 5699 5691 5690 5695 5695 5705 5735 5736 5738 5739 5741 5744 5745 5745 5744 5742 5740 5738 5736 5734 5733 5731 5730 5729 5726 5725 5724 5722 5720 5719 5717 5716 5714 5713 5711 5710 5709 5707 5706 5704 5703 5702 5700 5698 5697 5696 5695